Simultaneous Nadir Overpasses (SNOs) Predictions

Prediction of SNOs between NPP and TERRA Satellite Orbit:

Table of predicted SNOs for the next 14.0 days since TLE Epoch: 10/19/2013
Index Date (NPP) Time (NPP) Lat,Lon (NPP) SZA (NPP ) Date (TERRA) Time (TERRA) Lat,Lon (TERRA) SZA (TERRA ) Distance(km) Time Diff (sec)
1 10/20/2013 01:16:12 69.44, 158.32 79.67 10/20/2013 01:17:19 69.33, 160.49 79.60 85.66 67
2 10/20/2013 02:06:37 -68.44, -33.00 101.31 10/20/2013 02:07:03 -68.45, -33.00 101.31 0.19 26
3 10/20/2013 02:57:21 68.32, 134.48 78.58 10/20/2013 02:56:30 68.33, 134.51 78.60 2.44 51
4 10/22/2013 17:32:52 68.56, -84.69 79.75 10/22/2013 17:34:03 68.55, -84.63 79.75 2.50 71
5 10/22/2013 18:23:33 -68.41, 82.82 100.38 10/22/2013 18:23:34 -68.40, 82.81 100.41 2.07 1
6 10/22/2013 19:14:15 68.18,-109.58 79.41 10/22/2013 19:13:02 68.23,-109.74 79.44 8.34 73
7 10/25/2013 09:49:47 68.48, 31.18 80.61 10/25/2013 09:50:36 68.51, 31.18 80.63 2.46 49
8 10/25/2013 10:40:28 -68.34,-161.31 99.53 10/25/2013 10:40:07 -68.36,-161.37 99.52 3.22 21
9 10/25/2013 11:30:56 67.35, 7.22 79.53 10/25/2013 11:29:49 67.40, 5.17 79.52 88.03 67
10 10/28/2013 02:06:43 68.47, 146.98 81.51 10/28/2013 02:07:11 68.47, 146.99 81.50 0.70 28
11 10/28/2013 02:57:24 -68.32, -45.51 98.64 10/28/2013 02:56:42 -68.32, -45.55 98.64 1.86 42
12 10/30/2013 17:33:03 -69.05, 94.66 97.05 10/30/2013 17:34:13 -68.95, 95.79 97.14 46.44 70
13 10/30/2013 18:23:37 68.41, -97.17
